Home   Weather   Olpe   Past weeks

Flag for Germany Past Weather in Olpe, North Rhine-Westphalia, Germany — Yesterday and Last 2 Weeks

Now
52 °F

Sunny.


Feels Like: 46 °F
Forecast: 42 / 48 °F
Wind: 22 mph from Southeast

Location: Hessen

Current Time: Apr 30, 2017 at 1:15:06 pm

Latest Report: Apr 30, 2017 at 12:20 pm


Visibility: 10 mi

Pressure: 29.92 "Hg

Humidity: 58%

Dew Point: 37 °F

Location of OlpeLocation

Past Weather in Olpe — Graph

°F

Olpe Temperature Yesterday

Maximum temperature yesterday: 50 °F (at 6:20 pm)
Minimum temperature yesterday: 36 °F (at 7:20 am)
Average temperature yesterday: 43 °F

High & Low Weather Summary for the Past Weeks

 TemperatureHumidityPressure
High54 °F (Apr 24, 3:20 pm)100% (Apr 15, 12:20 pm)30.54 "Hg (Apr 15, 12:20 pm)
Low28 °F (Apr 19, 7:50 am)37% (Apr 20, 4:20 pm)29.68 "Hg (Apr 25, 7:20 am)
Average40 °F69%30.08 "Hg
* Reported Apr 15 12:20 pm — Apr 30 12:20 pm, Olpe, Weather by CustomWeather, © 2017

Note: Actual official high and low records may vary slightly from our data, if they occured in-between our weather recording intervals... More about our weather records

Advertising

Olpe Weather History for the Previous 24 Hours

Scroll right to see more
 ConditionsComfort  
Time TempWeatherWind HumidityBarometerVisibility
12:20 pm
Sun, Apr 30
52 °FSunny.22 mph58%29.92 "Hg10 mi
11:50 am48 °FSunny.24 mph58%29.92 "Hg10 mi
11:20 am48 °FPassing clouds.17 mph58%29.92 "HgN/A
10:50 am48 °FSunny.20 mph58%29.92 "Hg10 mi
10:20 am46 °FSunny.16 mph62%29.95 "Hg10 mi
9:50 am45 °FSunny.17 mph61%29.95 "Hg10 mi
9:20 am41 °FSunny.15 mph66%29.95 "Hg10 mi
8:50 am41 °FSunny.16 mph66%29.95 "Hg10 mi
8:20 am39 °FSunny.16 mph70%29.95 "Hg10 mi
8:50 pm
Sat, Apr 29
45 °FPassing clouds.7 mph49%30.01 "HgN/A
8:20 pm48 °FSunny.3 mph43%30.01 "Hg10 mi
7:50 pm48 °FSunny.3 mph43%30.01 "Hg10 mi
7:20 pm48 °FPassing clouds.6 mph46%30.01 "HgN/A
6:50 pm48 °FPassing clouds.6 mph46%30.01 "HgN/A
6:20 pm50 °FPassing clouds.6 mph43%30.01 "HgN/A
5:50 pm48 °FSunny.5 mph46%30.01 "Hg10 mi
5:20 pm48 °FPassing clouds.5 mph46%30.01 "HgN/A
4:50 pm48 °FPassing clouds.9 mph46%30.01 "HgN/A
4:20 pm48 °FSunny.5 mph46%30.04 "Hg10 mi
3:50 pm45 °FPassing clouds.5 mph53%30.04 "HgN/A
3:20 pm45 °FScattered clouds.7 mph53%30.04 "HgN/A
2:20 pm43 °FScattered clouds.3 mph57%30.04 "HgN/A
1:50 pm45 °FScattered clouds.8 mph66%30.04 "HgN/A
1:20 pm43 °FScattered clouds.7 mph61%30.04 "HgN/A
Weather by CustomWeather, © 2017

See weather overviewHow to use our weather pages